sat.trackr.live / text

‹ back to catalog

STARLINK-34969

NORAD 65241 · 2025-179G

PAYLOAD ACTIVE UNKNOWN

§ Identity

Operator
Country
US
Launch date
2025-08-18
Launch site
AFWTR
Launch vehicle
Mass (kg)
RCS (m²)

Purposes: comms

External: N2YO · Heavens-Above · Gunter

§ Orbital elements

Epoch: 2026-05-25T02:01:22.739808Z

Period
95.63 min
Inclination
97.4515°
Eccentricity
0.0002697
Mean motion
15.05731200 rev/d
Perigee alt
547.4 km
Apogee alt
551.1 km
Semi-major
6,927.4 km
B*
1.9565e-3
RAAN
187.9026°
Arg perigee
109.3870°
Mean anomaly
250.7648°
Rev number
4,331

§ Raw data

STARLINK-349691 65241U 25179G   26145.08429097  .00028347  00000+0  19565-2 0  99902 65241  97.4515 187.9026 0002697 109.3870 250.7648 15.05731200 43313

JSON: /api/v1/satellites/65241 · /tle

For live sub-satellite position, see the globe view (requires WebGL).

§ Visibility from observer

Set your observer location to see the next 7 days of passes ≥ 10°. The values pass through the URL so the page stays shareable.

No JS? Fill the form by hand. The geolocation button needs JavaScript.